This is the latest recevied weather packets stored in our database for station/object CE1RLP-34. If no packets are shown the sender has not sent any weather packets the latest 10 day(s).
| Time | Temp. | Humidity | Pressure | Rain* | Wind** | Luminosity | Snow |
|---|---|---|---|---|---|---|---|
| 1777440908 | 7.22° C | 10% | 1080.7 hPa | - | - | - | - |
| 1777440006 | 7.78° C | 10% | 1081.4 hPa | - | - | - | - |
| 1777439106 | 7.78° C | 10% | 1081.5 hPa | - | - | - | - |
| 1777438203 | 7.78° C | 10% | 1081.6 hPa | - | - | - | - |
| 1777437303 | 7.78° C | 10% | 1081.5 hPa | - | - | - | - |
| 1777436400 | 7.78° C | 10% | 1081.5 hPa | - | - | - | - |
| 1777435500 | 7.78° C | 10% | 1081.5 hPa | - | - | - | - |
| 1777434598 | 7.78° C | 9% | 1081.6 hPa | - | - | - | - |
| 1777433698 | 7.78° C | 9% | 1081.7 hPa | - | - | - | - |
| 1777432795 | 7.78° C | 9% | 1081.6 hPa | - | - | - | - |
| 1777431895 | 7.78° C | 9% | 1081.7 hPa | - | - | - | - |
| 1777430993 | 7.78° C | 10% | 1081.9 hPa | - | - | - | - |
| 1777430093 | 7.22° C | 10% | 1081.2 hPa | - | - | - | - |
| 1777429190 | 7.78° C | 10% | 1081.9 hPa | - | - | - | - |
| 1777428290 | 7.78° C | 10% | 1081.9 hPa | - | - | - | - |
| 1777427388 | 7.78° C | 9% | 1081.9 hPa | - | - | - | - |
| 1777426488 | 7.78° C | 9% | 1082 hPa | - | - | - | - |
| 1777425585 | 7.78° C | 9% | 1082.1 hPa | - | - | - | - |
| 1777424685 | 7.78° C | 9% | 1082 hPa | - | - | - | - |
| 1777423783 | 8.33° C | 9% | 1081.9 hPa | - | - | - | - |
| 1777422883 | 8.89° C | 10% | 1081.9 hPa | - | - | - | - |
| 1777421982 | 9.44° C | 11% | 1081.7 hPa | - | - | - | - |
| 1777420207 | 11.11° C | 10% | 1081.6 hPa | - | - | - | - |
| 1777419307 | 12.22° C | 10% | 1081.4 hPa | - | - | - | - |
| 1777418405 | 12.78° C | 10% | 1081.3 hPa | - | - | - | - |
* Rain since midnight (hover to see other rain measurements)
** Current wind speed in m/s (hover to see current wind gust speed)